Showing default

JILIN-01 GAOFEN 3E, 46457

Orbit data source: Space-Track

JILIN-01 GAOFEN 3E, 46457 is a payload satellite owned by Changguang WJ (CN) in SSO that was launched on Tue, 15 Sep 2020 UTC via a CHANG ZHENG 11 launch vehicle from the Yellow Sea Launch Area, China (YSLA). Payload-class satellites include a variety of spacecraft equipped with specific instruments for various scientific and technological missions. These include communications satellites like Starlink; space stations such as the ISS; scientific satellites like the Hubble; Earth observation satellites from companies like Planet Labs, Umbra, and HawkEye 360; GPS; miniature CubeSats for education and research; and military/defense satellites.

Loading next visibility...
Identifier
46457, 2020-065D
Orbit
SSO
Last TLE update
4 hours ago
Origin
Flag of CNCGSTL (CN / PRC)
Manufacturer
Changguang WJ
Mission
Operational Commercial Imaging
Bus & Motor
JL-1, Unknown motor
Mass
42 kg wet, 42 kg dry
Launch date (UTC)
2020-09-15 (5 years ago)
Launch vehicle
CHANG ZHENG 11
Launch site
Yellow Sea Launch Area, China (YSLA)
Object type
Payload
Rocket body
Debris
Shape & HBR
Box + 2 Pan, 1.5 m
Radar Cross Section
2.000 m², Medium (>0.1 m² and < 1m²)

Expand to show TLE details & history

TLE from 4 hours ago
0 JILIN-01 GAOFEN 3E
1 46457U 20065D   25186.19782828  .00018165  00000-0  49272-3 0  9994
2 46457  97.2838 232.2955 0020073 355.6595   4.4472 15.37467735266062
Epoch: 2025-07-05T04:44Z
TLE epoch observation values (Epoch: 2025-07-05T04:44:52.363Z)
Latitude
-0.00007°
Longitude
-122.36199°
Altitude
443.043 km
Speed
7.654 km/s
True Right ascension
15h 29m 10s
True Declination
0° 00' 00"
Sunlit
Object was in full shadow at epoch
Visualization orbit readout
Latitude
69.16485°
Longitude
77.29832°
Altitude
471.245 km
Speed
7.634 km/s
Apparent Right ascension
07h 08m 04s
Apparent Declination
19° 01' 38"
Sunlit
Object is in daylight
Visualization observer readout
Local Sidereal Time
20:14:39
Azimuth
18.046° NNE
Elevation
-29.045°
Doppler factor
1
Orbital elements
Apogee altitude
464.245 km
Perigee altitude
436.831 km
Semi-major axis
6,828.675 km
Eccentricity
0.00201
Inclination
97.2838°
RAAN
232.2955°
Arg. of periapsis
355.6595°
True anomaly
Unknown
Mean anomaly
4.4472°
Eccentric anomaly
Unknown
Mean motion
3.84626 °/min
Orbital period
93.6 mins
BSTAR
0.00049272
Loading maneuver chart data...
Loading SW <> Apogee altitude chart data...
Loading historical data...
Loading historical data...
Loading historical data...
Loading historical data...
Loading historical data...
Loading historical data...
Loading historical data...

JILIN-01 GAOFEN 3E Visibility forecast

Observer location: undefined°, undefined°

Span
Click to sort rows by Start time (UTC) header in descending order
Start Az.
Max El. time (UTC)
Max El. Az.
Max El.
End time (UTC)
End Az.
6 mins2025-07-05 16:13:46.929Z0.631° NNE2025-07-05 16:16:46.929Z301.886° NW37.162°2025-07-05 16:19:46.929Z211.575° SW
5 mins2025-07-06 02:45:46.929Z132.521° SE2025-07-06 02:47:46.929Z68.325° E31.897°2025-07-06 02:50:46.929Z4.362° NNE
|